Regional Weather Roundup
Issued by NWS

Home | Current Version | Previous Version | Text Only | Print | Product List | Glossary Off
Versions: 1 2 3 4 5 6 7 8 9 10 11 12 13 14 15 16 17 18 19 20 21 22 23 24 25 26 27 28 29 30 31 32 33 34 35 36 37 38 39 40 41 42 43 44 45 46 47 48 49 50

000
ASUS43 KLOT 281308
RWRIL

ILLINOIS REGIONAL WEATHER ROUNDUP
NATIONAL WEATHER SERVICE CHICAGO/ROMEOVILLE IL
800 AM CDT THU MAY 28 2015

NOTE: "FAIR" INDICATES FEW OR NO CLOUDS BELOW 12,000 FEET WITH NO
SIGNIFICANT WEATHER AND/OR OBSTRUCTIONS TO VISIBILITY.

* THESE STATIONS ARE NOT UNDER NWS QUALITY CONTROL. THEY ALSO MAY NOT
  REPORT WEATHER SUCH AS PRECIPITATION OR FOG.

ILZ001-002-007-009-015-016-024-281400-
NORTHWEST ILLINOIS

CITY           SKY/WX    TMP DP  RH WIND       PRES   REMARKS
MOLINE         SUNNY     66  58  75 CALM      30.18R
STERLING*      SUNNY     66  59  77 S3        30.19R
SAVANNA*       SUNNY     69  59  70 CALM      30.18R
$$

ILZ003-004-008-010-011-017-018-281400-
NORTH CENTRAL ILLINOIS

CITY           SKY/WX    TMP DP  RH WIND       PRES   REMARKS
ROCKFORD       MOSUNNY   66  58  75 S3        30.21R
FREEPORT*      SUNNY     67  60  76 CALM      30.21R
ROCHELLE*      SUNNY     67  58  74 CALM      30.20R
DE KALB*       SUNNY     64  57  79 S3        30.21R
PERU*          SUNNY     67  55  66 S6        30.21R
$$

ILZ005-006-012>014-019>023-281400-
NORTHEAST ILLINOIS

CITY           SKY/WX    TMP DP  RH WIND       PRES   REMARKS
CHICAGO-OHARE  MOSUNNY   66  56  70 CALM      30.20R
CHICAGO-MIDWAY MOSUNNY   68  57  68 CALM      30.20R
AURORA         SUNNY     67  57  70 CALM      30.20R
LANSING*       SUNNY     65  55  71 CALM      30.21S
JOLIET*        SUNNY     66  59  77 CALM      30.20R
WAUKEGAN       SUNNY     65  58  78 SW8       30.19R
DUPAGE AIRPORT SUNNY     65  57  75 S3        30.20R
KANKAKEE*      SUNNY     66  59  78 E7        30.21R
WHEELING       SUNNY     67  56  67 CALM      30.21S
MORRIS*        SUNNY     65  57  75 SE6       30.18R
ROMEOVILLE*    SUNNY     66  57  73 CALM      30.20R
NORTHERLY ISL    N/A     68  55  63 S3          N/A
$$

LMZ740>746-281400-
SOUTHERN LAKE MICHIGAN

STATION/POSITION SKY/WX   TEMP    WIND        PRES    VSBY  WAVE
                          AIR SEA DIR/SP/G                  HT/PER
                          (F)     (DEG/KT/KT) (MB)    (MI)  (FT/S)
SOUTHERN BUOY              44 38  180/  8/  8 1023.0R         0
HARRISON CRIB              64     200/ 15/ 17   N/A
BURNHAM HARBOR             68     200/  4/  8   N/A
CALUMET HARBOR             62     200/  5/  7   N/A
BURNS HARBOR               61     180/  9/ 13 1023.4R
MICHIGAN CITY              62     140/  7/  8   N/A
MICHIGAN CITY 6N           59 53  200/  4/  6   N/A           0
ST. JOSEPH                 59 56  220/  4/  4   N/A           1
$$

ILZ025>027-034>036-040-047-049-050-058-095>099-281400-
WEST-CENTRAL ILLINOIS

CITY           SKY/WX    TMP DP  RH WIND       PRES   REMARKS
QUINCY         MOSUNNY   68  58  70 SE10      30.16S
GALESBURG*     SUNNY     67  59  74 S7        30.19R
MACOMB*        SUNNY     67  60  77 SE8       30.20S
JACKSONVILLE*  SUNNY     70  59  67 SE9       30.18S
PITTSFIELD*    MOSUNNY   68  59  73 SE8       30.18F HAZE
$$

ILZ028>032-037-038-041>044-048-051>054-059>061-281400-
CENTRAL ILLINOIS

CITY           SKY/WX    TMP DP  RH WIND       PRES   REMARKS
PONTIAC        SUNNY     67  59  74 SE6       30.22R
BLOOMINGTON    SUNNY     68  59  73 S8        30.23R
DECATUR        SUNNY     69  57  65 E10       30.21R
PEORIA         SUNNY     69  56  62 SE5       30.20R
LACON*         SUNNY     65  58  76 CALM      30.20R
LINCOLN*       SUNNY     68  58  71 SE6       30.19R
SPRINGFIELD    SUNNY     70  58  65 SE9       30.19R
TAYLORVILLE    SUNNY     66  55  68 E9        30.19S
$$

ILZ033-039-045-046-055>057-062-063-281400-
EAST-CENTRAL ILLINOIS

CITY           SKY/WX    TMP DP  RH WIND       PRES   REMARKS
CHAMPAIGN      SUNNY     68  57  68 E9        30.21R
DANVILLE*      SUNNY     66  56  68 E8        30.20R
RANTOUL*       SUNNY     68  58  72 SE6       30.21R
PARIS*         SUNNY     68  57  69 E7        30.22R
$$

ILZ079-100>102-281400-
SOUTHWEST ILLINOIS

CITY           SKY/WX    TMP DP  RH WIND       PRES   REMARKS
ALTON          SUNNY     68  64  88 E7        30.17S
BELLEVILLE     MOSUNNY   69  66  89 E6        30.16R
CAHOKIA*       SUNNY     72  62  71 E5        30.16S
SPARTA*        CLOUDY    70  69  96 SE3       30.18S
$$

ILZ064>066-069>071-074>076-080>082-084>086-088>090-092>094-281400-
SOUTH-CENTRAL ILLINOIS

CITY           SKY/WX    TMP DP  RH WIND       PRES   REMARKS
CARBONDALE     CLOUDY    69  67  93 S3        30.17R
CAIRO*         MOSUNNY   69  68  98 SE6       30.17S
EFFINGHAM*     MOSUNNY   69  58  67 E7        30.21R
MARION         CLOUDY    70  68  94 MISG      30.19R FOG
MT. VERNON     PTSUNNY   70  63  78 CALM      30.19R
CENTRALIA*     MOSUNNY   74  63  67 E3        30.17S HAZE
SALEM*         MOSUNNY   70  62  75 E3        30.18S
METROPOLIS*    MOSUNNY   69  69 100 CALM      30.18R
$$

ILZ067-068-072-073-078-083-087-091-281400-
SOUTHEAST ILLINOIS

CITY           SKY/WX    TMP DP  RH WIND       PRES   REMARKS
LAWRENCEVILLE  MOSUNNY   69  66  90 CALM      30.19R FOG
FLORA*         FOG       66  65  97 CALM      30.19R VSB 1/4
FAIRFIELD*     PTSUNNY   70  67  92 CALM      30.17R
HARRISBURG*    FOG       67  67 100 S3        30.20R VSB 1/4
ROBINSON*      MOSUNNY   68  63  86 NE5       30.20R
CARMI*         PTSUNNY   72  64  78 S5        30.18S
$$

ABBREVIATIONS USED IN REMARKS
   TC - TEMPERATURE IN CELSIUS
  WCI - WIND CHILL INDEX
   HX - HEAT INDEX
  VSB - VISIBILITY
$$



USA.gov is the U.S. government's official web portal to all federal, state and local government web resources and services.